Theta_e
307 307 307 308 308 308 309 310 310 310 310 311 311 311 312 313 313 314 315 315 316 317 316 316 315 318 321 323 324 323 317 318 323 331 334 334 340 345 346 344 344 345 342 341 343
306 307 307 307 308 308 309 309 310 310 311 311 312 312 312 313 316 324 315 317 319 317 315 316 319 320 320 323 325 321 317 321 322 331 332 337 344 344 345 345 344 341 343 343 343
306 307 307 308 308 309 309 309 310 310 311 311 312 312 313 313 323 324 326 321 317 316 315 321 321 320 320 323 324 323 322 323 326 327 336 339 341 345 346 346 345 344 344 344 343
307 307 308 308 309 309 309 309 310 311 311 312 312 315 315 313 327 328 323 321 315 315 317 319 320 321 320 320 322 322 323 324 326 335 337 337 340 343 343 346 343 339 343 344 343
308 309 309 309 310 310 310 309 310 311 311 312 314 320 316 314 321 328 321 316 315 316 319 321 322 322 319 319 321 321 322 325 327 337 338 338 337 338 341 345 343 341 344 345 345
311 311 311 311 310 310 310 310 311 312 312 314 317 321 317 317 328 328 324 317 316 316 320 321 323 322 322 320 319 323 322 322 326 337 338 337 337 340 341 342 341 341 342 343 340
313 313 313 313 311 310 310 311 317 315 315 316 319 321 318 315 328 326 323 318 316 316 319 321 322 321 322 319 322 323 321 320 324 327 329 338 339 340 340 340 342 342 342 341 339
315 315 315 314 312 310 311 318 319 318 319 317 319 322 322 320 326 325 323 319 319 318 320 321 321 322 322 322 322 321 321 321 321 325 332 337 340 339 339 340 340 341 341 340 338
315 315 315 315 313 311 315 319 317 319 321 322 318 327 323 323 323 324 325 323 321 321 322 321 321 322 322 319 317 318 321 322 322 323 324 324 333 339 339 339 340 340 340 340 338
316 316 315 315 314 312 315 317 319 321 317 318 327 320 323 324 323 323 323 325 322 321 321 320 321 318 315 317 319 321 322 321 323 322 323 327 335 340 339 339 339 340 341 341 340
316 316 316 315 315 312 317 315 315 315 314 314 315 319 324 324 323 323 324 325 323 319 317 319 317 317 319 318 320 321 321 322 322 322 322 323 337 340 339 339 340 341 342 343 343
315 315 315 316 315 313 316 319 319 316 314 315 317 317 319 320 319 323 324 323 319 316 317 316 317 318 319 320 319 319 320 320 320 322 319 323 336 338 338 340 340 341 342 343 344
313 313 313 315 315 316 317 319 317 315 314 316 319 319 322 320 319 320 325 321 317 316 317 316 318 320 320 320 320 319 319 319 319 321 321 321 324 331 332 340 341 341 342 343 344
312 312 312 313 315 315 316 318 316 316 315 321 322 323 322 321 319 321 325 320 317 316 316 316 318 319 320 319 319 318 320 322 323 324 322 322 321 327 331 340 339 339 337 343 345
312 312 312 311 311 314 317 318 316 317 323 328 324 323 321 320 321 321 323 319 316 317 317 318 321 321 321 321 321 321 321 321 322 322 323 325 321 321 329 335 339 338 340 343 344
311 312 312 312 311 313 316 315 317 318 323 326 321 320 318 320 320 321 320 320 320 318 319 318 321 322 321 323 322 323 322 320 320 320 323 323 322 322 331 333 332 338 341 342 343
309 308 310 311 312 311 316 318 315 319 321 325 323 320 318 319 319 319 319 319 319 320 318 319 320 322 323 323 322 322 318 318 321 321 324 322 325 324 325 331 332 335 340 341 342
309 306 308 309 310 310 318 313 318 320 322 321 319 321 320 320 319 320 320 319 320 319 318 320 320 323 323 323 322 321 320 320 323 325 323 325 326 327 327 330 332 336 338 340 342
306 305 306 308 308 315 319 313 315 318 320 319 320 321 320 321 322 320 320 320 320 318 320 322 323 324 324 326 326 325 321 320 323 324 324 324 332 331 331 329 329 331 333 336 340
303 304 307 316 308 319 314 314 315 317 318 319 320 322 321 321 321 324 323 321 321 319 319 320 321 324 327 325 326 324 323 325 321 325 327 330 336 334 332 331 329 330 332 338 341
304 312 321 320 317 320 315 314 316 317 318 319 318 321 321 321 322 325 328 329 329 327 319 320 320 321 324 325 326 325 323 324 322 325 327 330 337 330 330 328 327 328 332 336 339
308 316 320 317 318 317 315 317 318 318 318 318 319 321 321 321 322 325 328 330 330 329 320 319 318 321 322 323 324 325 327 324 326 325 332 335 334 331 328 328 331 331 332 334 335
311 317 320 321 316 316 316 318 318 318 318 318 320 320 320 320 322 325 328 330 330 332 332 325 318 320 321 324 327 329 329 328 325 326 330 333 332 330 329 330 332 331 335 336 332
316 317 321 320 320 316 318 318 319 320 321 320 318 319 318 319 321 322 326 328 329 327 327 325 319 320 323 327 329 330 330 329 327 327 329 333 332 332 330 331 334 339 344 343 338
315 317 319 317 318 317 318 318 320 320 321 320 317 318 318 320 320 322 326 326 329 325 326 325 331 327 324 326 328 329 330 330 330 330 331 331 331 330 329 333 338 342 343 343 343
317 319 320 319 318 319 318 320 321 321 321 323 323 323 321 319 318 321 325 327 330 325 323 323 331 327 326 327 327 329 329 328 331 331 331 330 331 330 330 340 341 342 341 340 343
317 319 319 318 316 317 317 319 321 321 322 325 324 323 325 325 326 326 324 324 328 324 324 327 326 328 334 328 327 328 332 332 333 331 330 332 331 330 331 332 338 340 341 338 336
Wind_Speed
15 16 17 18 20 21 21 22 23 23 22 22 21 20 20 19 16 14 11 4 6 5 1 5 5 9 2 4 8 7 3 3 4 6 7 16 20 22 14 28 10 8 27 27 32
14 15 17 19 21 22 22 22 23 23 22 21 20 19 20 18 15 9 3 6 7 3 3 7 8 1 3 4 4 5 4 6 7 6 13 18 35 23 15 17 17 22 28 27 32
15 17 18 19 21 23 23 24 23 22 21 20 19 17 18 16 9 6 1 3 5 3 7 8 2 6 3 3 5 4 6 4 19 15 22 21 17 17 26 4 29 32 32 28 32
16 17 19 20 21 23 24 25 23 21 20 19 17 16 15 11 1 5 3 2 4 7 9 6 1 2 2 3 5 4 14 10 11 25 19 17 24 16 14 15 28 32 35 34 31
16 18 20 21 22 23 24 24 21 20 20 17 15 14 14 6 5 3 3 2 7 9 10 5 3 2 2 4 7 4 6 15 4 32 28 26 16 11 16 30 28 33 30 30 26
17 19 21 22 24 24 25 22 20 18 17 15 12 12 11 4 1 4 4 4 8 12 14 7 1 10 11 6 3 11 15 9 11 28 26 17 10 12 20 32 31 33 25 20 23
18 20 22 23 24 25 24 19 20 18 14 11 11 12 15 13 2 3 7 4 6 13 14 6 8 13 13 8 9 9 8 7 6 12 6 27 5 12 33 33 34 31 26 23 24
19 21 23 24 25 25 21 21 19 13 11 10 10 12 9 3 8 9 2 3 5 7 7 3 12 12 4 7 10 6 3 2 6 7 19 13 8 13 35 34 31 34 31 30 29
21 23 24 24 24 22 18 19 21 10 8 8 8 7 9 4 10 6 8 1 2 2 8 13 12 3 5 4 6 6 3 2 8 2 5 4 7 24 39 33 30 31 35 34 32
23 25 25 24 22 19 17 17 11 4 11 8 6 7 7 1 9 13 10 6 6 6 8 5 2 2 4 5 3 4 3 4 2 6 3 4 9 20 33 33 32 34 35 35 33
23 25 26 24 20 18 17 22 28 6 28 22 23 20 23 11 10 13 15 12 11 8 3 8 3 5 6 7 7 3 4 6 7 7 6 8 14 22 29 29 28 31 32 36 37
23 25 26 24 18 14 15 21 23 18 16 29 26 27 29 26 9 6 16 11 5 4 3 4 5 11 7 6 4 5 7 10 7 9 8 7 11 21 24 30 35 34 31 39 38
22 24 25 24 16 8 5 16 15 17 5 22 11 16 26 17 15 20 18 15 3 3 5 7 9 6 6 7 5 7 5 7 10 7 5 7 3 7 10 21 29 36 43 40 44
21 22 24 25 10 11 2 13 10 16 4 7 6 6 11 11 5 17 24 12 3 7 5 6 14 8 6 7 4 8 7 7 5 0 4 4 5 5 8 15 15 31 30 34 40
20 21 21 21 22 14 15 13 10 4 3 3 4 4 12 11 4 12 19 15 7 7 6 9 3 5 6 8 5 13 9 7 4 4 3 3 4 7 6 9 17 27 34 38 43
20 21 22 21 20 13 12 15 8 4 5 5 4 6 6 10 7 4 19 21 11 4 3 8 11 4 6 6 5 9 3 4 4 3 0 7 7 6 6 18 18 23 33 38 40
22 22 23 24 20 14 12 10 4 3 5 4 2 4 6 7 5 7 7 5 5 1 5 7 6 4 5 5 6 3 6 3 4 3 5 6 3 8 8 16 18 20 32 38 41
24 24 24 25 16 9 5 4 3 3 5 7 9 4 6 2 6 5 8 7 5 4 2 1 9 3 3 6 5 7 8 6 5 4 4 1 5 4 7 16 22 30 36 38 38
25 25 26 14 10 10 4 2 6 5 4 7 10 6 8 7 1 3 9 11 9 9 8 3 6 5 9 7 5 3 3 8 5 1 3 2 5 6 12 12 9 17 16 25 31
24 26 17 1 16 14 4 5 5 4 8 5 3 3 7 8 7 5 2 5 6 10 11 7 6 4 4 4 6 7 5 1 2 4 5 1 1 4 8 8 4 12 22 30 33
17 14 10 9 23 10 4 6 5 10 12 3 6 4 3 4 4 5 5 4 10 8 3 5 4 5 5 2 1 6 5 2 4 5 6 2 5 5 6 6 6 10 19 33 32
8 3 10 18 6 4 3 3 6 9 20 7 5 1 2 4 4 4 4 4 13 5 7 6 5 3 9 10 12 10 10 5 4 5 2 4 5 5 7 12 20 22 24 27 25
5 7 8 7 2 2 5 6 10 16 15 5 4 4 3 1 3 1 4 9 19 7 2 3 1 2 10 7 4 2 3 3 3 3 4 3 5 4 2 11 27 28 28 20 26
4 2 4 6 8 6 2 6 6 13 15 14 7 4 3 3 1 4 5 4 9 8 13 6 2 7 7 6 3 2 3 3 4 3 3 2 5 5 5 13 17 29 27 30 31
4 3 4 3 4 5 1 5 12 7 6 10 5 6 6 3 4 4 3 3 7 8 5 5 1 6 10 9 4 4 2 2 5 1 5 3 4 1 5 17 26 29 28 34 34
3 2 4 5 10 3 4 6 8 13 5 6 4 1 5 3 7 4 2 1 2 5 4 5 3 7 5 7 6 4 4 6 4 7 5 8 4 5 8 26 28 27 28 29 34
3 6 3 5 5 3 2 6 5 5 7 5 5 2 5 4 2 5 6 5 8 5 3 3 3 4 6 8 8 5 4 7 9 4 6 5 4 4 10 8 16 21 28 31 30
Wind_Direction
341 341 342 341 340 340 341 338 336 335 333 330 330 329 326 329 324 307 287 180 154 220 249 171 149 141 195 228 222 209 47 284 244 154 151 131 117 158 145 137 161 205 156 149 164
344 344 344 342 342 341 340 338 335 333 331 330 330 328 326 331 329 319 167 157 157 144 176 149 134 7 249 234 212 154 149 231 200 158 148 146 122 129 132 134 107 124 144 153 165
348 348 347 345 341 340 340 338 334 331 330 329 329 327 327 334 340 21 192 132 137 157 178 159 206 309 234 239 228 206 212 237 279 239 151 140 134 131 122 141 149 148 162 167 171
350 348 347 347 343 340 338 336 333 330 327 327 327 327 329 329 200 359 352 210 161 176 181 180 188 192 255 238 236 286 265 250 288 141 144 142 136 143 151 174 154 149 159 166 166
349 347 346 345 343 339 337 335 332 328 324 326 323 326 332 322 278 321 347 171 175 185 176 182 229 205 246 247 329 196 295 319 255 165 151 141 144 139 138 151 149 152 165 175 183
350 348 346 345 343 339 337 335 331 328 322 322 317 317 322 296 349 0 316 228 189 190 184 208 173 330 293 267 141 286 303 286 303 150 152 140 140 122 148 149 147 159 170 181 182
346 346 345 346 344 340 337 338 332 321 320 316 313 311 304 261 212 320 5 256 201 197 210 237 327 319 305 329 342 302 307 340 251 152 118 124 100 154 157 156 157 168 176 180 184
338 339 340 344 346 342 343 342 339 329 323 314 310 311 277 13 227 254 104 156 175 191 237 309 330 315 275 324 329 335 49 44 280 134 155 124 187 158 162 160 168 176 179 186 190
330 330 332 338 346 342 350 357 342 329 336 313 294 304 277 239 231 232 220 299 124 249 278 300 297 304 351 58 1 7 259 215 322 158 163 112 148 171 174 168 174 181 187 193 190
326 324 324 329 342 341 349 7 4 74 7 339 281 296 248 320 257 230 231 245 250 274 278 278 291 47 37 73 225 257 291 304 231 289 165 142 188 176 179 172 182 186 188 193 194
324 323 321 321 334 340 359 26 23 346 318 279 269 265 277 285 282 223 202 220 241 242 202 271 67 239 232 200 218 246 275 276 262 268 182 197 165 180 183 182 188 189 191 195 200
323 323 321 318 325 334 353 24 10 335 303 292 279 263 263 272 293 250 193 194 208 210 231 354 239 241 241 258 256 271 267 272 290 261 179 167 187 180 179 193 188 191 193 200 203
321 322 322 319 321 322 354 2 4 349 280 296 269 242 246 235 229 250 201 203 154 216 227 193 244 241 224 274 287 272 234 255 238 294 230 115 346 191 212 197 193 193 199 202 203
318 319 322 321 316 324 341 335 328 349 24 276 227 239 197 199 253 241 201 186 202 209 233 234 259 242 260 256 182 277 227 248 278 133 229 128 232 230 185 198 198 200 203 202 206
313 314 316 320 312 311 323 322 333 20 0 256 218 196 161 167 158 212 196 190 192 229 116 244 269 242 222 236 227 246 243 236 247 257 64 291 103 251 140 201 205 209 206 203 209
308 308 307 307 300 314 313 329 336 49 258 303 155 177 110 216 237 81 177 205 236 197 237 237 283 239 223 296 279 263 281 11 40 116 264 242 175 260 195 205 198 208 207 205 206
305 305 298 292 289 313 302 327 56 171 312 343 292 166 156 189 242 146 164 185 178 110 300 314 273 261 261 314 310 120 64 335 338 355 215 247 115 235 233 213 202 190 200 205 204
307 303 291 276 281 278 281 47 183 254 253 316 338 295 173 136 260 193 145 198 260 117 102 207 316 198 238 198 218 273 159 162 201 220 245 113 218 273 276 248 213 183 195 200 197
311 305 293 279 236 205 157 109 210 227 312 352 335 28 5 353 217 145 180 197 204 172 174 180 258 332 312 283 156 257 179 195 187 207 352 253 326 315 8 357 163 157 156 155 180
314 316 303 231 179 165 93 233 239 286 351 5 319 44 27 340 32 13 192 243 224 194 153 224 293 239 294 338 262 172 194 206 340 210 250 353 245 239 30 346 22 101 117 137 151
316 314 352 158 155 158 171 236 282 287 324 317 312 287 31 358 357 325 6 53 357 329 153 144 146 279 22 297 35 352 301 103 140 163 182 207 257 218 100 104 80 80 117 128 133
300 311 96 140 136 180 211 217 326 287 300 275 264 182 87 6 317 339 69 48 1 18 165 217 151 273 245 251 270 248 264 194 141 258 133 125 267 284 118 116 128 115 118 123 140
261 275 181 189 166 245 287 282 271 280 279 280 287 158 100 49 335 328 55 65 45 58 53 320 297 356 330 341 36 115 321 351 90 101 180 102 285 73 49 139 137 132 114 134 149
277 336 290 218 234 160 240 276 267 286 281 253 249 149 107 36 348 296 4 57 65 40 25 155 170 167 199 218 171 296 38 344 114 78 195 186 147 351 75 108 102 107 123 120 126
242 252 23 322 329 352 243 282 283 291 279 321 188 164 160 157 356 309 27 33 51 4 55 85 27 348 283 258 309 242 168 280 66 301 61 195 34 148 155 134 130 122 126 120 123
241 328 338 291 284 262 209 244 231 263 234 307 79 12 79 151 190 248 177 161 197 14 61 4 356 4 296 289 261 252 244 90 90 76 134 128 118 93 43 113 135 139 127 124 130
216 270 266 284 334 11 311 307 298 253 247 203 154 111 80 187 134 251 244 168 167 127 109 72 66 28 289 321 309 312 17 109 115 87 90 85 316 73 58 57 152 139 136 139 134